This is the latest recevied weather packets stored in our database for station/object KB2M. If no packets are shown the sender has not sent any weather packets the latest 10 day(s).
| Time | Temp. | Humidity | Pressure | Rain* | Wind** | Luminosity | Snow |
|---|---|---|---|---|---|---|---|
| 1777506193 | 25.56° C | 73% | 1012.1 hPa | 0 mm | - | - | - |
| 1777505593 | 25.56° C | 74% | 1012.1 hPa | 0 mm | - | - | - |
| 1777504993 | 25.56° C | 75% | 1012.1 hPa | 0 mm | - | - | - |
| 1777504363 | 26.11° C | 74% | 1012.1 hPa | 0 mm | - | - | - |
| 1777503763 | 26.11° C | 73% | 1012.1 hPa | 0 mm | - | - | - |
| 1777503163 | 26.11° C | 74% | 1012.1 hPa | 0 mm | - | - | - |
| 1777502563 | 26.11° C | 74% | 1012.1 hPa | 0 mm | - | - | - |
| 1777501933 | 26.11° C | 73% | 1012.1 hPa | 0 mm | - | - | - |
| 1777501303 | 26.67° C | 72% | 1012.1 hPa | 0 mm | - | - | - |
| 1777500703 | 27.22° C | 69% | 1012.1 hPa | 0 mm | - | - | - |
| 1777500073 | 27.22° C | 68% | 1012.1 hPa | 0 mm | - | - | - |
| 1777499473 | 27.22° C | 68% | 1012.1 hPa | 0 mm | - | - | - |
| 1777498873 | 27.22° C | 66% | 1012.1 hPa | 0 mm | - | - | - |
| 1777498272 | 27.22° C | 65% | 1012.1 hPa | 0 mm | - | - | - |
| 1777497672 | 27.78° C | 64% | 1012.5 hPa | 0 mm | - | - | - |
| 1777497071 | 27.78° C | 66% | 1012.8 hPa | 0 mm | - | - | - |
| 1777496471 | 27.78° C | 67% | 1012.8 hPa | 0 mm | - | - | - |
| 1777495870 | 29.44° C | 62% | 1013.2 hPa | 0 mm | - | - | - |
| 1777495270 | 30.56° C | 56% | 1012.8 hPa | 0 mm | - | - | - |
| 1777494669 | 30.56° C | 47% | 1013.2 hPa | 0 mm | - | - | - |
| 1777494068 | 30° C | 48% | 1013.5 hPa | 0 mm | - | - | - |
| 1777493467 | 30° C | 49% | 1013.5 hPa | 0 mm | - | - | - |
| 1777492867 | 29.44° C | 53% | 1013.8 hPa | 0 mm | - | - | - |
| 1777492266 | 28.89° C | 53% | 1013.8 hPa | 0 mm | - | - | - |
| 1777491665 | 28.89° C | 64% | 1014.2 hPa | 0 mm | - | - | - |
* Rain latest hour (hover to see other rain measurements)
** Current wind speed in m/s (hover to see current wind gust speed)